User: anonymous   Login
Location: Unspecified
(0.0000°N, 0.0000°E)
Time: 11:11:44
(UTC+00:00)
Language:

Vanguard 2 Rocket - Orbit

View from above orbital plane
View from above orbital plane
View from above satellite
View from above satellite

Ground track
Ground track

The orbit data is extracted from the following two-line orbital elements,

1    12U 59001B   17344.96580455 +.00000143 +00000-0 +66235-4 0  9993
2    12 032.9130 327.7251 1665327 282.1574 059.7998 11.44148929174630
Epoch (UTC): 10 December 2017 23:10:45
Eccentricity: 0.1665327
inclination: 32.9130°
perigee height: 555 km
apogee height: 3326 km
right ascension of ascending node: 327.7251°
argument of perigee: 282.1574°
revolutions per day: 11.44148929
mean anomaly at epoch: 59.7998°
orbit number at epoch: 17463

The dashed part of the orbit path shows where the satellite is in the earth's shadow,  

DLR